FENGYUN 1C DEB, 29774

Orbit data source: Space-Track

FENGYUN 1C DEB, 29774 is space debris in SSO originally from a launch on Mon, 10 May 1999 UTC launched from the Taiyaun Space Center, China (TSC). Fengyun 1C debris stems from the Chinese weather satellite Fengyun-1C, which was intentionally destroyed by a Chinese anti-satellite missile in 2007. This event dramatically increased the amount of space debris, with thousands of trackable fragments posing hazards to satellites and human spaceflight. The Fengyun 1C debris cloud has become a focal point in discussions about space sustainability and the need for international regulations to prevent the creation of new debris.

Loading next visibility...
Identifier
29774, 1999-025BQ
Orbit
SSO
Country
Flag of CNCN / PRC
Related business
Manufacturer
Unknown
Mission
Spacecraft
Bus & Motor
Unknown
Mass
Unknown
Launch date (UTC)
1999-05-10 (27 years ago)
Launch vehicle
Unknown
Launch site
Taiyaun Space Center, China (TSC)
Object type
Payload
Rocket body
Debris
Shape & HBR
Unknown shape, 0.1 m
Radar Cross Section
Medium (>0.1 m² and <1 m²)

Expand to show TLE details & history
Last TLE update: 20 hours ago

TLE from 20 hours ago
0 FENGYUN 1C DEB
1 29774U 99025BQ  26206.82277451  .00000221  00000-0  11771-3 0  9991
2 29774  99.0985 159.2806 0049676 198.7630 191.0737 14.22920250 12770
Epoch: 2026-07-25T19:44Z
TLE epoch observation values (Epoch: 2026-07-25T19:44:47.717Z)
Latitude
29.3662°
Longitude
-85.5906°
Altitude
854.215 km
Speed
7.41 km/s
True Right ascension
10h 16m 33s
True Declination
29° 13' 17"
Sunlit
Object was in daylight at epoch
Visualization orbit readout
Latitude
Unknown
Longitude
Unknown
Altitude
Unknown
Speed
Unknown
Apparent Right ascension
Unknown
Apparent Declination
Unknown
Sunlit
N/A
Visualization observer readout
Local Sidereal Time
05:17:19
Azimuth
Unknown
Elevation
Unknown
Doppler factor
Unknown
Orbital elements
Apogee altitude
848.388 km
Perigee altitude
776.946 km
Semi-major axis
7,190.804 km
Eccentricity
0.00497
Inclination
99.0985°
RAAN
159.2806°
Arg. of periapsis
198.763°
True anomaly
190.96503°
Mean anomaly
191.0737°
Eccentric anomaly
191.0193°
Mean motion
3.5594 °/min
Orbital period
101.14 mins
BSTAR
0.00011771
Loading maneuver chart data...
Computing Atmospheric mass density...

Documentation

Showing up to 5 results
|